Location: Dittelspoint
(48.7198°N, 10.7214°E)
Time: 17:56:07
(UTC+00:00)

Meteor 2-10 Rocket - Pass Details

Date: 09 April 2020
Orbit: 734 x 885 km, 81.2° (Epoch: 04 June)

Event Time Altitude Azimuth Distance (km) Brightness Sun altitude
Exits shadow 20:33:52 56° 142° (SE) 940 3.5 -22.8°
Maximum altitude 20:34:42 65° 97° (E) 876 3.5 -22.9°
Drops below altitude 10° 20:40:07 10° 17° (NNE) 2,427 6.4 -23.5°
Sets 20:42:36 0° 15° (NNE) 3,388 7.3 -23.8°
